Regional Weather Roundup
Issued by NWS Sioux Falls, SD

Home | Current Version | Previous Version | Graphics & Text | Print | Product List | Glossary On
Versions: 1 2 3 4 5 6 7 8 9 10 11 12 13 14 15 16 17 18 19 20 21 22 23 24 25 26 27 28 29 30 31 32 33 34 35 36 37 38 39 40 41 42 43 44 45 46 47 48 49 50
000
ASUS43 KFSD 240610
RWRFSD

WEATHER ROUNDUP FOR SE SOUTH DAKOTA/SW MINNESOTA/NW IOWA
NATIONAL WEATHER SERVICE SIOUX FALLS SD
100 AM CDT FRI MAR 24 2017

NOTE: "FAIR" INDICATES FEW OR NO CLOUDS BELOW 12,000 FEET WITH NO
SIGNIFICANT WEATHER AND OR OBSTRUCTIONS TO VISIBILITY.


SDZ038>040-050-052>070-240700-
SOUTHEAST SOUTH DAKOTA

CITY           SKY/WX    TMP DP  RH WIND       PRES   REMARKS
BROOKINGS      CLOUDY    36  36 100 NE7       29.78R FOG
CHAMBERLAIN    CLOUDY    43  41  90 N7        29.85R
6HR MIN TEMP:  43; 6HR MAX TEMP:  55;

HURON          CLOUDY    39  39 100 N10       29.83R
6HR MIN TEMP:  39; 6HR MAX TEMP:  43; 6HR PCP: TRACE;

MADISON        FOG       37  37 100 NE6       29.79R VSB 1/4
MITCHELL       CLOUDY    43  43 100 NW13      29.80R FOG
6HR MIN TEMP:  43; 6HR MAX TEMP:  50;

SIOUX FALLS    LGT RAIN  43  41  93 N9        29.77R
6HR MIN TEMP:  43; 6HR MAX TEMP:  48; 6HR PCP:  0.03;

WINNER         CLOUDY    45  43  93 N7        29.85R FOG
YANKTON        CLOUDY    46  45  93 N3        29.78R
$$

MNZ071-072-080-081-089-090-097-098-240700-
SOUTHWEST MINNESOTA

CITY           SKY/WX    TMP DP  RH WIND       PRES   REMARKS
FAIRMONT       TSTM      41  38  89 VRB5      29.81R
JACKSON        RAIN      37  36  93 CALM      29.83R
LUVERNE        RAIN      37  36  93 E7        29.80R
MARSHALL       CLOUDY    36  36 100 N8        29.81F FOG
6HR MIN TEMP:  36; 6HR MAX TEMP:  38; 6HR PCP: TRACE;

MONTEVIDEO     CLOUDY    36  36 100 E6        29.84S FOG
PIPESTONE      LGT RAIN  39  34  81 NE7       29.77R
REDWOOD FALLS  CLOUDY    39  36  89 NE7       29.80F FOG
TRACY          CLOUDY    38  37  97 NE6       29.79S FOG
WINDOM         TSTM      39  36  87 N9        29.81R
WORTHINGTON    LGT RAIN  39  36  89 NE13      29.77R
$$

IAZ001>003-012>014-020>022-031-032-NEZ013-014-SDZ071-240700-
NORTHWEST IOWA

CITY           SKY/WX    TMP DP  RH WIND       PRES   REMARKS
CHEROKEE       LGT RAIN  46  41  84 N7        29.76R
ESTHERVILLE    TSTM      39  39 100 NE7       29.76R FOG
LE MARS        DRIZZLE   46  45  93 N12       29.73F
ORANGE CITY    RAIN      45  45 100 E8        29.72F
SHELDON        RAIN      43  43 100 CALM      29.77R
SIOUX CITY     LGT RAIN  51  47  86 N12       29.75R
6HR MIN TEMP:  51; 6HR MAX TEMP:  58; 6HR PCP:  0.01;

SPENCER        LGT RAIN  42  40  92 NE8       29.76R
6HR MIN TEMP:  42; 6HR MAX TEMP:  49; 6HR PCP:  0.21;

STORM LAKE     CLOUDY    45  39  81 SE8       29.70R
$$

ABBREVIATIONS USED IN REMARKS
   TC - TEMPERATURE IN CELSIUS
  WCI - WIND CHILL INDEX
   HX - HEAT INDEX
  VSB - VISIBILITY





USA.gov is the U.S. government's official web portal to all federal, state and local government web resources and services.